Home > Weather > Linköping > Past weeks

Flag for Sweden Past Weather in Linköping, Sweden — Yesterday and Last 2 Weeks

Now
70 °F

Partly sunny.


Feels Like: 70 °F
Forecast: 59 / 71 °F
Wind: 7 mph from North

Location: Linkoping / Saab

Current Time: Jul 27, 2016 at 9:25:47 PM

Latest Report: Jul 27, 2016 at 8:50 PM


Visibility: N/A

Pressure: 29.95 "Hg

Humidity: 53%

Dew Point: 52 °F

Location of LinköpingLocation

Past Weather in Linköping — Graph

°F

Linköping Temperature Yesterday

Maximum temperature yesterday: 75 °F (at 4:20 PM)
Minimum temperature yesterday: 61 °F (at 11:50 PM)
Average temperature yesterday: 69 °F

High & Low Weather Summary for the Past Weeks

 TemperatureHumidityPressure
High88 °F (Jul 24, 3:50 PM)100% (Jul 21, 4:50 AM)30.12 "Hg (Jul 21, 4:50 AM)
Low52 °F (Jul 18, 3:50 AM)19% (Jul 22, 5:20 PM)29.62 "Hg (Jul 12, 7:20 PM)
Average67 °F62%29.97 "Hg
* Reported Jul 12 7:20 PM — Jul 27 7:50 PM, Linköping, Weather by CustomWeather, © 2016

Note: Actual official high and low records may vary slightly from our data, if they occured in-between our weather recording intervals... More about our weather records

Advertising

Linköping Weather History for the Previous 24 Hours

Scroll right to see more
 ConditionsComfort  
Time TempWeatherWind HumidityBarometerVisibility
7:50 PM
Wed, Jul 27
72 °FScattered clouds.6 mph53%29.95 "HgN/A
7:20 PM73 °FPartly sunny.7 mph47%29.95 "HgN/A
6:50 PM73 °FPartly sunny.6 mph47%29.95 "HgN/A
6:20 PM73 °FPassing clouds.7 mph47%29.95 "HgN/A
5:50 PM73 °FPartly sunny.2 mph44%29.95 "HgN/A
5:20 PM73 °FPassing clouds.5 mph44%29.95 "HgN/A
4:50 PM73 °FPassing clouds.3 mph44%29.95 "HgN/A
4:20 PM73 °FPassing clouds.3 mph44%29.98 "HgN/A
3:50 PM73 °FPassing clouds.6 mph44%29.98 "HgN/A
2:50 PM72 °FPartly sunny.5 mph47%30.01 "HgN/A
2:20 PM72 °FPassing clouds.5 mph44%30.01 "HgN/A
1:50 PM73 °FPassing clouds.7 mph44%30.01 "HgN/A
1:20 PM72 °FBroken clouds.7 mph47%30.01 "HgN/A
12:50 PM70 °FPartly sunny.6 mph50%30.01 "HgN/A
12:20 PM70 °FScattered clouds.7 mph50%30.04 "HgN/A
11:50 AM70 °FScattered clouds.10 mph46%30.04 "HgN/A
11:20 AM70 °FMild.9 mph50%30.04 "HgN/A
10:50 AM70 °FMild.9 mph46%30.04 "HgN/A
10:20 AM66 °FMild.9 mph56%30.04 "HgN/A
9:50 AM68 °FMild.8 mph60%30.04 "HgN/A
9:20 AM66 °FMild.8 mph64%30.04 "HgN/A
8:50 AM64 °FMild.9 mph68%30.04 "HgN/A
8:20 AM63 °FMild.9 mph73%30.07 "HgN/A
7:50 AM61 °FCool.8 mph77%30.04 "HgN/A
7:20 AM61 °FCool.7 mph77%30.04 "HgN/A
6:50 AM59 °FCool.6 mph82%30.04 "HgN/A
6:20 AM57 °FCool.3 mph88%30.04 "HgN/A
5:50 AM55 °FPassing clouds.5 mph88%30.04 "HgN/A
5:20 AM55 °FCool.5 mph88%30.04 "HgN/A
4:50 AM55 °FCool.6 mph88%30.04 "HgN/A
4:20 AM55 °FCool.5 mph88%30.04 "HgN/A
3:50 AM55 °FCool.2 mph88%30.04 "HgN/A
3:20 AM57 °FCool.3 mph82%30.04 "HgN/A
2:50 AM57 °FCool.5 mph82%30.04 "HgN/A
2:20 AM57 °FCool.5 mph82%30.04 "HgN/A
1:50 AM59 °FCool.3 mph77%30.04 "HgN/A
1:20 AM59 °FCool.5 mph77%30.04 "HgN/A
12:50 AM61 °FCool.5 mph72%30.04 "HgN/A
12:20 AM61 °FCool.6 mph72%30.04 "HgN/A
11:50 PM
Tue, Jul 26
61 °FCool.3 mph72%30.04 "HgN/A
11:20 PM63 °FPassing clouds.3 mph68%30.04 "HgN/A
10:50 PM64 °FClear.5 mph68%30.01 "Hg10 mi
10:20 PM66 °FSunny.6 mph60%30.01 "Hg10 mi
9:50 PM66 °FSunny.9 mph60%30.01 "Hg10 mi
9:20 PM68 °FPassing clouds.12 mph56%30.01 "HgN/A
Weather by CustomWeather, © 2016

See weather overviewHow to use our weather pages